Find Starlink 30600

NORAD ID: 58100 Int'l Des: 2023-161 Owner: SPXS Country: US Constellation: starlink operational
LEOCIRCULAR

現在のビュー

3D地球を読み込み中...

About Starlink 30600

Starlink 30600 (NORAD 58100) is a starlink constellation satellite (v2 mini) launched Oct 21, 2023 by SPXS of US. It operates in LEO, CIRCULAR orbit with a mass of 730.00 kg.

次回通過

Passes for default location (London). Set your location on the main map for personalized predictions.

高度履歴

Loading altitude history...

軌道要素

1 58100U 23161D 26236.91940154 .00001293 00000-0 49412-4 0 9998
2 58100 53.1571 101.6141 0001229 95.3411 264.7732 15.34394641160210
Epoch: Aug 24, 2026 • Age: 16 hours

現在のステータス

高度 466.6 km
遠地点 / 近地点 N/A
速度 7.64 km/s
衛星直下点 44.96°N, 43.37°E
打ち上げ日 Oct 21, 2023
運用期間 2.8 years
タイプ internet

技術仕様

分類 Payload
質量 730.00 kg
乾燥質量 700.00 kg
総質量 730.00 kg
長さ 0.30 m
直径 4.10 m
スパン 29.00 m
形状 Box + pan
製造者 SPXS
バスタイプ Starlink V2M
フェーズステータス In Orbit
所有者/国 SPXS/US

Most Searched